Time,TemperatureF,DewpointF,PressureIn,WindDirection,WindDirectionDegrees,WindSpeedMPH,WindSpeedGustMPH,Humidity,HourlyPrecipIn,Conditions,Clouds,dailyrainin,SoftwareType,DateUTC
2013-05-16 00:02:00,52.5,38.1,-100.00,North,-999,0.0,0.0,58,0.00,,,-99.99,FreeWX-Wi 1.01,2013-05-16 07:02:00,
2013-05-16 00:07:00,52.3,37.9,-100.00,North,-999,0.0,0.0,58,0.00,,,-99.99,FreeWX-Wi 1.01,2013-05-16 07:07:00,
2013-05-16 00:12:00,52.3,37.9,-100.00,North,-999,0.0,0.0,58,0.00,,,-99.99,FreeWX-Wi 1.01,2013-05-16 07:12:00,
2013-05-16 00:17:00,52.2,38.3,-100.00,North,-999,0.0,0.0,59,0.00,,,-99.99,FreeWX-Wi 1.01,2013-05-16 07:17:00,
2013-05-16 00:22:00,52.2,38.3,-100.00,North,-999,0.0,0.0,59,0.00,,,-99.99,FreeWX-Wi 1.01,2013-05-16 07:22:00,
2013-05-16 00:27:00,52.2,38.7,-100.00,North,-999,0.0,0.0,60,0.00,,,-99.99,FreeWX-Wi 1.01,2013-05-16 07:27:00,
2013-05-16 00:32:00,52.2,38.7,-100.00,North,-999,0.0,0.0,60,0.00,,,-99.99,FreeWX-Wi 1.01,2013-05-16 07:32:00,
2013-05-16 00:37:00,52.2,38.7,-100.00,North,-999,0.0,0.0,60,0.00,,,-99.99,FreeWX-Wi 1.01,2013-05-16 07:37:00,
2013-05-16 00:42:00,52.2,38.7,-100.00,North,-999,0.0,0.0,60,0.00,,,-99.99,FreeWX-Wi 1.01,2013-05-16 07:42:00,
2013-05-16 00:47:00,52.2,38.7,-100.00,North,-999,0.0,0.0,60,0.00,,,-99.99,FreeWX-Wi 1.01,2013-05-16 07:47:00,
2013-05-16 00:52:00,52.2,39.2,-100.00,North,-999,0.0,0.0,61,0.00,,,-99.99,FreeWX-Wi 1.01,2013-05-16 07:52:00,
2013-05-16 00:57:00,52.2,39.2,-100.00,North,-999,0.0,0.0,61,0.00,,,-99.99,FreeWX-Wi 1.01,2013-05-16 07:57:00,
2013-05-16 01:02:00,52.2,39.2,-100.00,North,-999,0.0,0.0,61,0.00,,,-99.99,FreeWX-Wi 1.01,2013-05-16 08:02:00,
2013-05-16 01:07:00,52.2,39.6,-100.00,North,-999,0.0,0.0,62,0.00,,,-99.99,FreeWX-Wi 1.01,2013-05-16 08:07:00,
2013-05-16 01:12:00,52.2,39.6,-100.00,North,-999,0.0,0.0,62,0.00,,,-99.99,FreeWX-Wi 1.01,2013-05-16 08:12:00,
2013-05-16 01:17:00,52.3,39.7,-100.00,North,-999,0.0,0.0,62,0.00,,,-99.99,FreeWX-Wi 1.01,2013-05-16 08:17:00,
2013-05-16 01:22:00,52.3,39.7,-100.00,North,-999,0.0,0.0,62,0.00,,,-99.99,FreeWX-Wi 1.01,2013-05-16 08:22:00,
2013-05-16 01:27:00,52.3,39.7,-100.00,North,-999,0.0,0.0,62,0.00,,,-99.99,FreeWX-Wi 1.01,2013-05-16 08:27:00,
2013-05-16 01:32:00,52.3,39.7,-100.00,North,-999,0.0,0.0,62,0.00,,,-99.99,FreeWX-Wi 1.01,2013-05-16 08:32:00,
2013-05-16 01:37:00,52.3,39.7,-100.00,North,-999,0.0,0.0,62,0.00,,,-99.99,FreeWX-Wi 1.01,2013-05-16 08:37:00,
2013-05-16 01:42:00,52.3,39.7,-100.00,North,-999,0.0,0.0,62,0.00,,,-99.99,FreeWX-Wi 1.01,2013-05-16 08:42:00,
2013-05-16 01:47:00,52.3,40.1,-100.00,North,-999,0.0,0.0,63,0.00,,,-99.99,FreeWX-Wi 1.01,2013-05-16 08:47:00,
2013-05-16 01:52:00,52.3,40.1,-100.00,North,-999,0.0,0.0,63,0.00,,,-99.99,FreeWX-Wi 1.01,2013-05-16 08:52:00,
2013-05-16 01:57:00,52.3,40.1,-100.00,North,-999,0.0,0.0,63,0.00,,,-99.99,FreeWX-Wi 1.01,2013-05-16 08:57:00,
2013-05-16 02:02:00,52.3,40.1,-100.00,North,-999,0.0,0.0,63,0.00,,,-99.99,FreeWX-Wi 1.01,2013-05-16 09:02:00,
2013-05-16 02:07:00,52.3,40.1,-100.00,North,-999,0.0,0.0,63,0.00,,,-99.99,FreeWX-Wi 1.01,2013-05-16 09:07:00,
2013-05-16 02:12:00,52.3,40.1,-100.00,North,-999,0.0,0.0,63,0.00,,,-99.99,FreeWX-Wi 1.01,2013-05-16 09:12:00,
2013-05-16 02:17:00,52.3,40.1,-100.00,North,-999,0.0,0.0,63,0.00,,,-99.99,FreeWX-Wi 1.01,2013-05-16 09:17:00,
2013-05-16 02:22:00,52.3,40.1,-100.00,North,-999,0.0,0.0,63,0.00,,,-99.99,FreeWX-Wi 1.01,2013-05-16 09:22:00,
2013-05-16 02:27:00,52.3,40.5,-100.00,North,-999,0.0,0.0,64,0.00,,,-99.99,FreeWX-Wi 1.01,2013-05-16 09:27:00,
2013-05-16 02:32:00,52.3,40.5,-100.00,North,-999,0.0,0.0,64,0.00,,,-99.99,FreeWX-Wi 1.01,2013-05-16 09:32:00,
2013-05-16 02:37:00,52.3,40.5,-100.00,North,-999,0.0,0.0,64,0.00,,,-99.99,FreeWX-Wi 1.01,2013-05-16 09:37:00,
2013-05-16 02:42:00,52.5,40.6,-100.00,North,-999,0.0,0.0,64,0.00,,,-99.99,FreeWX-Wi 1.01,2013-05-16 09:42:00,
2013-05-16 02:47:00,52.5,40.6,-100.00,North,-999,0.0,0.0,64,0.00,,,-99.99,FreeWX-Wi 1.01,2013-05-16 09:47:00,
2013-05-16 02:52:00,52.3,40.5,-100.00,North,-999,0.0,0.0,64,0.00,,,-99.99,FreeWX-Wi 1.01,2013-05-16 09:52:00,
2013-05-16 02:57:00,52.5,40.6,-100.00,North,-999,0.0,0.0,64,0.00,,,-99.99,FreeWX-Wi 1.01,2013-05-16 09:57:00,
2013-05-16 03:02:00,52.5,40.6,-100.00,North,-999,0.0,0.0,64,0.00,,,-99.99,FreeWX-Wi 1.01,2013-05-16 10:02:00,
2013-05-16 03:07:00,52.5,40.6,-100.00,North,-999,0.0,0.0,64,0.00,,,-99.99,FreeWX-Wi 1.01,2013-05-16 10:07:00,
2013-05-16 03:12:00,52.3,40.5,-100.00,North,-999,0.0,0.0,64,0.00,,,-99.99,FreeWX-Wi 1.01,2013-05-16 10:12:00,
2013-05-16 03:17:00,52.3,40.5,-100.00,North,-999,0.0,0.0,64,0.00,,,-99.99,FreeWX-Wi 1.01,2013-05-16 10:17:00,
2013-05-16 03:22:00,52.2,39.9,-100.00,North,-999,0.0,0.0,63,0.00,,,-99.99,FreeWX-Wi 1.01,2013-05-16 10:22:00,
2013-05-16 03:27:00,52.2,39.9,-100.00,North,-999,0.0,0.0,63,0.00,,,-99.99,FreeWX-Wi 1.01,2013-05-16 10:27:00,
2013-05-16 03:32:00,52.2,39.9,-100.00,North,-999,0.0,0.0,63,0.00,,,-99.99,FreeWX-Wi 1.01,2013-05-16 10:32:00,
2013-05-16 03:37:00,52.2,40.3,-100.00,North,-999,0.0,0.0,64,0.00,,,-99.99,FreeWX-Wi 1.01,2013-05-16 10:37:00,
2013-05-16 03:42:00,52.0,40.1,-100.00,North,-999,0.0,0.0,64,0.00,,,-99.99,FreeWX-Wi 1.01,2013-05-16 10:42:00,
2013-05-16 03:47:00,52.0,40.1,-100.00,North,-999,0.0,0.0,64,0.00,,,-99.99,FreeWX-Wi 1.01,2013-05-16 10:47:00,
2013-05-16 03:52:00,52.0,40.1,-100.00,North,-999,0.0,0.0,64,0.00,,,-99.99,FreeWX-Wi 1.01,2013-05-16 10:52:00,
2013-05-16 03:57:00,51.8,40.1,-100.00,North,-999,0.0,0.0,64,0.00,,,-99.99,FreeWX-Wi 1.01,2013-05-16 10:57:00,
2013-05-16 04:02:00,51.8,40.1,-100.00,North,-999,0.0,0.0,64,0.00,,,-99.99,FreeWX-Wi 1.01,2013-05-16 11:02:00,
2013-05-16 04:07:00,51.6,39.9,-100.00,North,-999,0.0,0.0,64,0.00,,,-99.99,FreeWX-Wi 1.01,2013-05-16 11:07:00,
2013-05-16 04:12:00,51.6,39.9,-100.00,North,-999,0.0,0.0,64,0.00,,,-99.99,FreeWX-Wi 1.01,2013-05-16 11:12:00,
2013-05-16 04:17:00,51.6,40.3,-100.00,North,-999,0.0,0.0,65,0.00,,,-99.99,FreeWX-Wi 1.01,2013-05-16 11:17:00,
2013-05-16 04:22:00,51.8,40.5,-100.00,North,-999,0.0,0.0,65,0.00,,,-99.99,FreeWX-Wi 1.01,2013-05-16 11:22:00,
2013-05-16 04:27:00,51.8,40.8,-100.00,North,-999,0.0,0.0,66,0.00,,,-99.99,FreeWX-Wi 1.01,2013-05-16 11:27:00,
2013-05-16 04:32:00,51.8,40.8,-100.00,North,-999,0.0,0.0,66,0.00,,,-99.99,FreeWX-Wi 1.01,2013-05-16 11:32:00,
2013-05-16 04:37:00,52.0,41.0,-100.00,North,-999,0.0,0.0,66,0.00,,,-99.99,FreeWX-Wi 1.01,2013-05-16 11:37:00,
2013-05-16 04:42:00,52.0,41.0,-100.00,North,-999,0.0,0.0,66,0.00,,,-99.99,FreeWX-Wi 1.01,2013-05-16 11:42:00,
2013-05-16 04:47:00,52.0,41.0,-100.00,North,-999,0.0,0.0,66,0.00,,,-99.99,FreeWX-Wi 1.01,2013-05-16 11:47:00,
2013-05-16 04:52:00,52.0,41.0,-100.00,North,-999,0.0,0.0,66,0.00,,,-99.99,FreeWX-Wi 1.01,2013-05-16 11:52:00,
2013-05-16 04:57:00,52.0,41.0,-100.00,North,-999,0.0,0.0,66,0.00,,,-99.99,FreeWX-Wi 1.01,2013-05-16 11:57:00,
2013-05-16 05:02:00,52.0,41.0,-100.00,North,-999,0.0,0.0,66,0.00,,,-99.99,FreeWX-Wi 1.01,2013-05-16 12:02:00,
2013-05-16 05:07:00,52.0,40.6,-100.00,North,-999,0.0,0.0,65,0.00,,,-99.99,FreeWX-Wi 1.01,2013-05-16 12:07:00,
2013-05-16 05:12:00,51.8,40.5,-100.00,North,-999,0.0,0.0,65,0.00,,,-99.99,FreeWX-Wi 1.01,2013-05-16 12:12:00,
2013-05-16 05:17:00,51.8,40.5,-100.00,North,-999,0.0,0.0,65,0.00,,,-99.99,FreeWX-Wi 1.01,2013-05-16 12:17:00,
2013-05-16 05:22:00,51.8,40.5,-100.00,North,-999,0.0,0.0,65,0.00,,,-99.99,FreeWX-Wi 1.01,2013-05-16 12:22:00,
2013-05-16 05:27:00,51.8,40.8,-100.00,North,-999,0.0,0.0,66,0.00,,,-99.99,FreeWX-Wi 1.01,2013-05-16 12:27:00,
2013-05-16 05:32:00,51.8,40.8,-100.00,North,-999,0.0,0.0,66,0.00,,,-99.99,FreeWX-Wi 1.01,2013-05-16 12:32:00,
2013-05-16 05:38:00,51.8,40.8,-100.00,North,-999,0.0,0.0,66,0.00,,,-99.99,FreeWX-Wi 1.01,2013-05-16 12:38:00,
2013-05-16 05:43:00,51.8,40.8,-100.00,North,-999,0.0,0.0,66,0.00,,,-99.99,FreeWX-Wi 1.01,2013-05-16 12:43:00,
2013-05-16 05:48:00,51.8,40.8,-100.00,North,-999,0.0,0.0,66,0.00,,,-99.99,FreeWX-Wi 1.01,2013-05-16 12:48:00,
2013-05-16 05:53:00,52.0,41.0,-100.00,North,-999,0.0,0.0,66,0.00,,,-99.99,FreeWX-Wi 1.01,2013-05-16 12:53:00,
2013-05-16 05:58:00,52.0,41.0,-100.00,North,-999,0.0,0.0,66,0.00,,,-99.99,FreeWX-Wi 1.01,2013-05-16 12:58:00,
2013-05-16 06:03:00,52.0,41.0,-100.00,North,-999,0.0,0.0,66,0.00,,,-99.99,FreeWX-Wi 1.01,2013-05-16 13:03:00,
2013-05-16 06:08:00,52.0,41.0,-100.00,North,-999,0.0,0.0,66,0.00,,,-99.99,FreeWX-Wi 1.01,2013-05-16 13:08:00,
2013-05-16 06:13:00,52.0,41.0,-100.00,North,-999,0.0,0.0,66,0.00,,,-99.99,FreeWX-Wi 1.01,2013-05-16 13:13:00,
2013-05-16 06:18:00,52.2,41.2,-100.00,North,-999,0.0,0.0,66,0.00,,,-99.99,FreeWX-Wi 1.01,2013-05-16 13:18:00,
2013-05-16 06:23:00,52.3,41.7,-100.00,North,-999,0.0,0.0,67,0.00,,,-99.99,FreeWX-Wi 1.01,2013-05-16 13:23:00,
2013-05-16 06:28:00,52.3,41.7,-100.00,North,-999,0.0,0.0,67,0.00,,,-99.99,FreeWX-Wi 1.01,2013-05-16 13:28:00,
2013-05-16 06:33:00,52.5,41.9,-100.00,North,-999,0.0,0.0,67,0.00,,,-99.99,FreeWX-Wi 1.01,2013-05-16 13:33:00,
2013-05-16 06:38:00,52.7,42.1,-100.00,North,-999,0.0,0.0,67,0.00,,,-99.99,FreeWX-Wi 1.01,2013-05-16 13:38:00,
2013-05-16 06:43:00,52.7,42.1,-100.00,North,-999,0.0,0.0,67,0.00,,,-99.99,FreeWX-Wi 1.01,2013-05-16 13:43:00,
2013-05-16 06:48:00,52.7,42.1,-100.00,North,-999,0.0,0.0,67,0.00,,,-99.99,FreeWX-Wi 1.01,2013-05-16 13:48:00,
2013-05-16 06:53:00,52.9,42.3,-100.00,North,-999,0.0,0.0,67,0.00,,,-99.99,FreeWX-Wi 1.01,2013-05-16 13:53:00,
2013-05-16 06:58:00,53.1,42.4,-100.00,North,-999,0.0,0.0,67,0.00,,,-99.99,FreeWX-Wi 1.01,2013-05-16 13:58:00,
2013-05-16 07:03:00,53.1,42.4,-100.00,North,-999,0.0,0.0,67,0.00,,,-99.99,FreeWX-Wi 1.01,2013-05-16 14:03:00,
2013-05-16 07:08:00,53.2,42.6,-100.00,North,-999,0.0,0.0,67,0.00,,,-99.99,FreeWX-Wi 1.01,2013-05-16 14:08:00,
2013-05-16 07:13:00,53.4,42.8,-100.00,North,-999,0.0,0.0,67,0.00,,,-99.99,FreeWX-Wi 1.01,2013-05-16 14:13:00,
2013-05-16 07:18:00,53.6,43.0,-100.00,North,-999,0.0,0.0,67,0.00,,,-99.99,FreeWX-Wi 1.01,2013-05-16 14:18:00,
2013-05-16 07:23:00,53.8,43.2,-100.00,North,-999,0.0,0.0,67,0.00,,,-99.99,FreeWX-Wi 1.01,2013-05-16 14:23:00,
2013-05-16 07:28:00,53.8,42.6,-100.00,North,-999,0.0,0.0,66,0.00,,,-99.99,FreeWX-Wi 1.01,2013-05-16 14:28:00,
2013-05-16 07:33:00,54.0,42.8,-100.00,North,-999,0.0,0.0,66,0.00,,,-99.99,FreeWX-Wi 1.01,2013-05-16 14:33:00,
2013-05-16 07:38:00,54.3,43.2,-100.00,North,-999,0.0,0.0,66,0.00,,,-99.99,FreeWX-Wi 1.01,2013-05-16 14:38:00,
2013-05-16 07:43:00,54.9,44.1,-100.00,North,-999,0.0,0.0,67,0.00,,,-99.99,FreeWX-Wi 1.01,2013-05-16 14:43:00,
2013-05-16 07:48:00,55.4,44.6,-100.00,North,-999,0.0,0.0,67,0.00,,,-99.99,FreeWX-Wi 1.01,2013-05-16 14:48:00,
2013-05-16 07:53:00,55.8,44.6,-100.00,North,-999,0.0,0.0,66,0.00,,,-99.99,FreeWX-Wi 1.01,2013-05-16 14:53:00,
2013-05-16 07:58:00,55.9,44.4,-100.00,North,-999,0.0,0.0,65,0.00,,,-99.99,FreeWX-Wi 1.01,2013-05-16 14:58:00,
2013-05-16 08:03:00,56.5,44.8,-100.00,North,-999,0.0,0.0,65,0.00,,,-99.99,FreeWX-Wi 1.01,2013-05-16 15:03:00,
2013-05-16 08:08:00,56.7,44.2,-100.00,North,-999,0.0,0.0,63,0.00,,,-99.99,FreeWX-Wi 1.01,2013-05-16 15:08:00,
2013-05-16 08:13:00,56.7,43.7,-100.00,North,-999,0.0,0.0,62,0.00,,,-99.99,FreeWX-Wi 1.01,2013-05-16 15:13:00,
2013-05-16 08:18:00,57.2,43.9,-100.00,North,-999,0.0,0.0,61,0.00,,,-99.99,FreeWX-Wi 1.01,2013-05-16 15:18:00,
2013-05-16 08:23:00,57.6,43.0,-100.00,North,-999,0.0,0.0,58,0.00,,,-99.99,FreeWX-Wi 1.01,2013-05-16 15:23:00,
2013-05-16 08:28:00,57.9,42.3,-100.00,North,-999,0.0,0.0,56,0.00,,,-99.99,FreeWX-Wi 1.01,2013-05-16 15:28:00,
2013-05-16 08:33:00,58.3,38.7,-100.00,North,-999,0.0,0.0,48,0.00,,,-99.99,FreeWX-Wi 1.01,2013-05-16 15:33:00,
2013-05-16 08:38:00,58.6,37.9,-100.00,North,-999,0.0,0.0,46,0.00,,,-99.99,FreeWX-Wi 1.01,2013-05-16 15:38:00,
2013-05-16 08:43:00,58.8,37.6,-100.00,North,-999,0.0,0.0,45,0.00,,,-99.99,FreeWX-Wi 1.01,2013-05-16 15:43:00,
2013-05-16 08:48:00,58.6,34.3,-100.00,North,-999,0.0,0.0,40,0.00,,,-99.99,FreeWX-Wi 1.01,2013-05-16 15:48:00,
2013-05-16 08:53:00,59.0,34.7,-100.00,North,-999,0.0,0.0,40,0.00,,,-99.99,FreeWX-Wi 1.01,2013-05-16 15:53:00,
2013-05-16 08:58:00,59.5,35.8,-100.00,North,-999,0.0,0.0,41,0.00,,,-99.99,FreeWX-Wi 1.01,2013-05-16 15:58:00,
2013-05-16 09:03:00,59.5,35.2,-100.00,North,-999,0.0,0.0,40,0.00,,,-99.99,FreeWX-Wi 1.01,2013-05-16 16:03:00,
2013-05-16 09:08:00,59.9,35.6,-100.00,North,-999,0.0,0.0,40,0.00,,,-99.99,FreeWX-Wi 1.01,2013-05-16 16:08:00,
2013-05-16 09:13:00,60.1,33.8,-100.00,North,-999,0.0,0.0,37,0.00,,,-99.99,FreeWX-Wi 1.01,2013-05-16 16:13:00,
2013-05-16 09:19:00,60.8,34.3,-100.00,North,-999,0.0,0.0,37,0.00,,,-99.99,FreeWX-Wi 1.01,2013-05-16 16:19:00,
2013-05-16 09:24:00,61.3,34.2,-100.00,North,-999,0.0,0.0,36,0.00,,,-99.99,FreeWX-Wi 1.01,2013-05-16 16:24:00,
2013-05-16 09:29:00,62.1,34.2,-100.00,North,-999,0.0,0.0,35,0.00,,,-99.99,FreeWX-Wi 1.01,2013-05-16 16:29:00,
2013-05-16 09:34:00,63.3,35.2,-100.00,North,-999,0.0,0.0,35,0.00,,,-99.99,FreeWX-Wi 1.01,2013-05-16 16:34:00,
2013-05-16 09:39:00,64.2,35.2,-100.00,North,-999,0.0,0.0,34,0.00,,,-99.99,FreeWX-Wi 1.01,2013-05-16 16:39:00,
2013-05-16 09:44:00,64.4,35.4,-100.00,North,-999,0.0,0.0,34,0.00,,,-99.99,FreeWX-Wi 1.01,2013-05-16 16:44:00,
2013-05-16 09:49:00,64.9,36.0,-100.00,North,-999,0.0,0.0,34,0.00,,,-99.99,FreeWX-Wi 1.01,2013-05-16 16:49:00,
2013-05-16 09:54:00,65.7,36.5,-100.00,North,-999,0.0,0.0,34,0.00,,,-99.99,FreeWX-Wi 1.01,2013-05-16 16:54:00,
2013-05-16 09:59:00,67.1,37.0,-100.00,North,-999,0.0,0.0,33,0.00,,,-99.99,FreeWX-Wi 1.01,2013-05-16 16:59:00,
2013-05-16 10:04:00,68.4,38.1,-100.00,North,-999,0.0,2.7,33,0.00,,,-99.99,FreeWX-Wi 1.01,2013-05-16 17:04:00,
2013-05-16 10:09:00,70.0,38.8,-100.00,North,-999,0.0,2.2,32,0.00,,,-99.99,FreeWX-Wi 1.01,2013-05-16 17:09:00,
2013-05-16 10:14:00,69.6,39.2,-100.00,North,-999,0.0,3.6,33,0.00,,,-99.99,FreeWX-Wi 1.01,2013-05-16 17:14:00,
2013-05-16 10:19:00,68.4,38.1,-100.00,North,-999,0.0,2.7,33,0.00,,,-99.99,FreeWX-Wi 1.01,2013-05-16 17:19:00,
2013-05-16 10:24:00,70.2,38.8,-100.00,North,-999,0.0,2.7,32,0.00,,,-99.99,FreeWX-Wi 1.01,2013-05-16 17:24:00,
2013-05-16 10:29:00,70.7,39.4,-100.00,North,-999,0.0,0.0,32,0.00,,,-99.99,FreeWX-Wi 1.01,2013-05-16 17:29:00,
2013-05-16 10:34:00,73.6,41.0,-100.00,North,-999,0.0,0.0,31,0.00,,,-99.99,FreeWX-Wi 1.01,2013-05-16 17:34:00,
2013-05-16 10:39:00,76.6,43.7,-100.00,North,-999,0.0,4.0,31,0.00,,,-99.99,FreeWX-Wi 1.01,2013-05-16 17:39:00,
2013-05-16 10:44:00,77.7,44.6,-100.00,North,-999,0.0,3.1,31,0.00,,,-99.99,FreeWX-Wi 1.01,2013-05-16 17:44:00,
2013-05-16 10:49:00,77.4,44.4,-100.00,North,-999,0.0,0.0,31,0.00,,,-99.99,FreeWX-Wi 1.01,2013-05-16 17:49:00,
2013-05-16 10:54:00,79.3,45.1,-100.00,North,-999,0.0,0.0,30,0.00,,,-99.99,FreeWX-Wi 1.01,2013-05-16 17:54:00,
2013-05-16 11:00:00,82.4,46.9,-100.00,North,-999,0.0,4.0,29,0.00,,,-99.99,FreeWX-Wi 1.01,2013-05-16 18:00:00,
2013-05-16 11:05:00,81.7,47.1,-100.00,NNE,20,1.0,3.6,30,0.00,,,-99.99,FreeWX-Wi 1.01,2013-05-16 18:05:00,
2013-05-16 11:10:00,80.4,46.0,-100.00,NE,49,1.0,3.1,30,0.00,,,-99.99,FreeWX-Wi 1.01,2013-05-16 18:10:00,
2013-05-16 11:15:00,81.0,46.6,-100.00,ENE,78,1.0,3.1,30,0.00,,,-99.99,FreeWX-Wi 1.01,2013-05-16 18:15:00,
2013-05-16 11:20:00,79.9,45.7,-100.00,East,91,1.0,3.6,30,0.00,,,-99.99,FreeWX-Wi 1.01,2013-05-16 18:20:00,
2013-05-16 11:25:00,78.8,44.8,-100.00,ESE,108,1.0,4.0,30,0.00,,,-99.99,FreeWX-Wi 1.01,2013-05-16 18:25:00,
2013-05-16 11:30:00,80.2,46.0,-100.00,ESE,106,1.0,4.9,30,0.00,,,-99.99,FreeWX-Wi 1.01,2013-05-16 18:30:00,
2013-05-16 11:35:00,80.4,46.0,-100.00,East,101,1.0,4.9,30,0.00,,,-99.99,FreeWX-Wi 1.01,2013-05-16 18:35:00,
2013-05-16 11:40:00,75.2,42.4,-100.00,ESE,108,1.0,4.9,31,0.00,,,-99.99,FreeWX-Wi 1.01,2013-05-16 18:40:00,
2013-05-16 11:45:00,72.5,41.0,-100.00,SE,132,1.0,2.7,32,0.00,,,-99.99,FreeWX-Wi 1.01,2013-05-16 18:45:00,
2013-05-16 11:50:00,72.3,40.8,-100.00,SW,217,1.0,0.0,32,0.00,,,-99.99,FreeWX-Wi 1.01,2013-05-16 18:50:00,
2013-05-16 11:55:00,73.0,41.4,-100.00,South,185,1.0,3.6,32,0.00,,,-99.99,FreeWX-Wi 1.01,2013-05-16 18:55:00,
2013-05-16 12:00:00,74.1,41.5,-100.00,SW,215,1.0,4.0,31,0.00,,,-99.99,FreeWX-Wi 1.01,2013-05-16 19:00:00,
2013-05-16 12:05:00,78.4,45.3,-100.00,North,-999,0.0,2.2,31,0.00,,,-99.99,FreeWX-Wi 1.01,2013-05-16 19:05:00,
2013-05-16 12:10:00,80.4,46.0,-100.00,North,-999,0.0,4.0,30,0.00,,,-99.99,FreeWX-Wi 1.01,2013-05-16 19:10:00,
2013-05-16 12:15:00,82.6,47.1,-100.00,North,-999,0.0,0.0,29,0.00,,,-99.99,FreeWX-Wi 1.01,2013-05-16 19:15:00,
2013-05-16 12:20:00,83.1,47.5,-100.00,North,-999,0.0,6.3,29,0.00,,,-99.99,FreeWX-Wi 1.01,2013-05-16 19:20:00,
2013-05-16 12:25:00,82.8,47.3,-100.00,North,-999,0.0,4.9,29,0.00,,,-99.99,FreeWX-Wi 1.01,2013-05-16 19:25:00,
2013-05-16 12:30:00,83.3,47.7,-100.00,NNE,31,1.0,5.4,29,0.00,,,-99.99,FreeWX-Wi 1.01,2013-05-16 19:30:00,
2013-05-16 12:35:00,84.7,48.9,-100.00,NE,36,1.0,4.0,29,0.00,,,-99.99,FreeWX-Wi 1.01,2013-05-16 19:35:00,
2013-05-16 12:40:00,82.2,47.7,-100.00,NE,42,1.0,4.9,30,0.00,,,-99.99,FreeWX-Wi 1.01,2013-05-16 19:40:00,
2013-05-16 12:45:00,79.5,45.3,-100.00,NNE,26,1.0,5.4,30,0.00,,,-99.99,FreeWX-Wi 1.01,2013-05-16 19:45:00,
2013-05-16 12:50:00,77.5,44.4,-100.00,NNE,29,1.0,3.6,31,0.00,,,-99.99,FreeWX-Wi 1.01,2013-05-16 19:50:00,
2013-05-16 12:55:00,73.0,41.4,-100.00,NE,36,1.0,0.0,32,0.00,,,-99.99,FreeWX-Wi 1.01,2013-05-16 19:55:00,
2013-05-16 13:01:00,72.0,40.5,-100.00,NE,47,1.0,0.0,32,0.00,,,-99.99,FreeWX-Wi 1.01,2013-05-16 20:01:00,
2013-05-16 13:06:00,77.4,44.4,-100.00,ENE,61,1.0,0.0,31,0.00,,,-99.99,FreeWX-Wi 1.01,2013-05-16 20:06:00,
2013-05-16 13:11:00,79.5,45.3,-100.00,North,-999,0.0,0.0,30,0.00,,,-99.99,FreeWX-Wi 1.01,2013-05-16 20:11:00,
2013-05-16 13:16:00,76.3,43.3,-100.00,North,-999,0.0,4.0,31,0.00,,,-99.99,FreeWX-Wi 1.01,2013-05-16 20:16:00,
2013-05-16 13:21:00,75.0,42.3,-100.00,North,-999,0.0,2.7,31,0.00,,,-99.99,FreeWX-Wi 1.01,2013-05-16 20:21:00,
2013-05-16 13:26:00,77.9,44.8,-100.00,North,-999,0.0,4.5,31,0.00,,,-99.99,FreeWX-Wi 1.01,2013-05-16 20:26:00,
2013-05-16 13:31:00,81.7,47.1,-100.00,North,-999,0.0,5.8,30,0.00,,,-99.99,FreeWX-Wi 1.01,2013-05-16 20:31:00,
2013-05-16 13:36:00,84.7,48.9,-100.00,North,-999,0.0,4.0,29,0.00,,,-99.99,FreeWX-Wi 1.01,2013-05-16 20:36:00,
2013-05-16 13:41:00,86.0,50.0,-100.00,North,-999,0.0,3.6,29,0.00,,,-99.99,FreeWX-Wi 1.01,2013-05-16 20:41:00,
2013-05-16 13:46:00,87.1,50.9,-100.00,North,-999,0.0,4.0,29,0.00,,,-99.99,FreeWX-Wi 1.01,2013-05-16 20:46:00,
2013-05-16 13:51:00,88.7,51.4,-100.00,North,-999,0.0,3.6,28,0.00,,,-99.99,FreeWX-Wi 1.01,2013-05-16 20:51:00,
2013-05-16 13:56:00,81.9,47.3,-100.00,North,-999,0.0,2.2,30,0.00,,,-99.99,FreeWX-Wi 1.01,2013-05-16 20:56:00,
2013-05-16 14:02:00,76.1,43.3,-100.00,North,-999,0.0,0.0,31,0.00,,,-99.99,FreeWX-Wi 1.01,2013-05-16 21:02:00,
2013-05-16 14:07:00,72.9,41.2,-100.00,North,-999,0.0,0.0,32,0.00,,,-99.99,FreeWX-Wi 1.01,2013-05-16 21:07:00,
2013-05-16 14:12:00,72.1,40.6,-100.00,North,-999,0.0,0.0,32,0.00,,,-99.99,FreeWX-Wi 1.01,2013-05-16 21:12:00,
2013-05-16 14:17:00,78.6,45.5,-100.00,North,-999,0.0,3.1,31,0.00,,,-99.99,FreeWX-Wi 1.01,2013-05-16 21:17:00,
2013-05-16 14:22:00,85.1,49.3,-100.00,East,81,1.0,3.6,29,0.00,,,-99.99,FreeWX-Wi 1.01,2013-05-16 21:22:00,
2013-05-16 14:27:00,81.0,46.6,-100.00,East,81,1.0,0.0,30,0.00,,,-99.99,FreeWX-Wi 1.01,2013-05-16 21:27:00,
2013-05-16 14:32:00,75.2,42.4,-100.00,East,81,1.0,0.0,31,0.00,,,-99.99,FreeWX-Wi 1.01,2013-05-16 21:32:00,
2013-05-16 14:37:00,72.5,41.0,-100.00,East,80,1.0,0.0,32,0.00,,,-99.99,FreeWX-Wi 1.01,2013-05-16 21:37:00,
2013-05-16 14:42:00,71.2,39.9,-100.00,East,79,1.0,0.0,32,0.00,,,-99.99,FreeWX-Wi 1.01,2013-05-16 21:42:00,
2013-05-16 14:47:00,71.6,40.1,-100.00,ENE,75,1.0,0.0,32,0.00,,,-99.99,FreeWX-Wi 1.01,2013-05-16 21:47:00,
2013-05-16 14:52:00,78.4,45.3,-100.00,ENE,75,1.0,3.6,31,0.00,,,-99.99,FreeWX-Wi 1.01,2013-05-16 21:52:00,
2013-05-16 14:57:00,83.7,48.0,-100.00,ENE,63,1.0,0.0,29,0.00,,,-99.99,FreeWX-Wi 1.01,2013-05-16 21:57:00,
2013-05-16 15:02:00,84.9,49.1,-100.00,ENE,66,1.0,5.4,29,0.00,,,-99.99,FreeWX-Wi 1.01,2013-05-16 22:02:00,
2013-05-16 15:07:00,87.3,51.1,-100.00,ENE,63,1.0,3.1,29,0.00,,,-99.99,FreeWX-Wi 1.01,2013-05-16 22:07:00,
2013-05-16 15:12:00,88.2,50.9,-100.00,ENE,62,1.0,5.4,28,0.00,,,-99.99,FreeWX-Wi 1.01,2013-05-16 22:12:00,
2013-05-16 15:17:00,89.1,51.6,-100.00,ENE,61,1.0,3.6,28,0.00,,,-99.99,FreeWX-Wi 1.01,2013-05-16 22:17:00,
2013-05-16 15:22:00,90.0,52.5,-100.00,NE,55,1.0,0.0,28,0.00,,,-99.99,FreeWX-Wi 1.01,2013-05-16 22:22:00,
2013-05-16 15:27:00,91.4,52.7,-100.00,NE,50,1.0,2.7,27,0.00,,,-99.99,FreeWX-Wi 1.01,2013-05-16 22:27:00,
2013-05-16 15:32:00,91.4,52.7,-100.00,NE,50,1.0,2.2,27,0.00,,,-99.99,FreeWX-Wi 1.01,2013-05-16 22:32:00,
2013-05-16 15:37:00,89.6,52.2,-100.00,North,-999,0.0,3.1,28,0.00,,,-99.99,FreeWX-Wi 1.01,2013-05-16 22:37:00,
2013-05-16 15:43:00,88.5,51.3,-100.00,North,-999,0.0,3.6,28,0.00,,,-99.99,FreeWX-Wi 1.01,2013-05-16 22:43:00,
2013-05-16 15:48:00,85.5,49.5,-100.00,NE,48,1.0,3.1,29,0.00,,,-99.99,FreeWX-Wi 1.01,2013-05-16 22:48:00,
2013-05-16 15:53:00,85.3,49.5,-100.00,NE,48,1.0,3.1,29,0.00,,,-99.99,FreeWX-Wi 1.01,2013-05-16 22:53:00,
2013-05-16 15:58:00,86.9,50.7,-100.00,NE,48,1.0,2.2,29,0.00,,,-99.99,FreeWX-Wi 1.01,2013-05-16 22:58:00,
2013-05-16 16:03:00,85.8,49.8,-100.00,NE,49,1.0,3.1,29,0.00,,,-99.99,FreeWX-Wi 1.01,2013-05-16 23:03:00,
2013-05-16 16:08:00,84.7,48.9,-100.00,NE,49,1.0,0.0,29,0.00,,,-99.99,FreeWX-Wi 1.01,2013-05-16 23:08:00,
2013-05-16 16:13:00,84.4,48.6,-100.00,NE,49,1.0,0.0,29,0.00,,,-99.99,FreeWX-Wi 1.01,2013-05-16 23:13:00,
2013-05-16 16:18:00,84.9,49.1,-100.00,NE,49,1.0,0.0,29,0.00,,,-99.99,FreeWX-Wi 1.01,2013-05-16 23:18:00,
2013-05-16 16:23:00,82.4,46.9,-100.00,NE,50,1.0,5.8,29,0.00,,,-99.99,FreeWX-Wi 1.01,2013-05-16 23:23:00,
2013-05-16 16:28:00,77.5,44.4,-100.00,NE,50,1.0,0.0,31,0.00,,,-99.99,FreeWX-Wi 1.01,2013-05-16 23:28:00,
2013-05-16 16:33:00,74.5,41.9,-100.00,NE,52,1.0,3.1,31,0.00,,,-99.99,FreeWX-Wi 1.01,2013-05-16 23:33:00,
2013-05-16 16:38:00,73.6,41.0,-100.00,NE,53,1.0,3.1,31,0.00,,,-99.99,FreeWX-Wi 1.01,2013-05-16 23:38:00,
2013-05-16 16:43:00,72.3,40.8,-100.00,NE,53,1.0,0.0,32,0.00,,,-99.99,FreeWX-Wi 1.01,2013-05-16 23:43:00,
2013-05-16 16:48:00,71.2,39.9,-100.00,NE,53,1.0,0.0,32,0.00,,,-99.99,FreeWX-Wi 1.01,2013-05-16 23:48:00,
2013-05-16 16:53:00,70.7,39.4,-100.00,NE,53,1.0,0.0,32,0.00,,,-99.99,FreeWX-Wi 1.01,2013-05-16 23:53:00,
2013-05-16 16:58:00,70.3,39.0,-100.00,NE,53,1.0,0.0,32,0.00,,,-99.99,FreeWX-Wi 1.01,2013-05-16 23:58:00,
2013-05-16 17:03:00,69.8,38.7,-100.00,NE,52,1.0,3.1,32,0.00,,,-99.99,FreeWX-Wi 1.01,2013-05-17 00:03:00,
2013-05-16 17:08:00,70.0,38.8,-100.00,NE,52,1.0,0.0,32,0.00,,,-99.99,FreeWX-Wi 1.01,2013-05-17 00:08:00,
2013-05-16 17:14:00,70.0,38.8,-100.00,NE,52,1.0,0.0,32,0.00,,,-99.99,FreeWX-Wi 1.01,2013-05-17 00:14:00,
2013-05-16 17:19:00,69.8,38.7,-100.00,NE,53,1.0,3.1,32,0.00,,,-99.99,FreeWX-Wi 1.01,2013-05-17 00:19:00,
2013-05-16 17:24:00,69.8,38.7,-100.00,NE,53,1.0,2.7,32,0.00,,,-99.99,FreeWX-Wi 1.01,2013-05-17 00:24:00,
2013-05-16 17:29:00,70.2,38.8,-100.00,NE,53,1.0,0.0,32,0.00,,,-99.99,FreeWX-Wi 1.01,2013-05-17 00:29:00,
2013-05-16 17:34:00,70.0,38.8,-100.00,NE,53,1.0,0.0,32,0.00,,,-99.99,FreeWX-Wi 1.01,2013-05-17 00:34:00,
2013-05-16 17:39:00,69.8,38.7,-100.00,NE,53,1.0,0.0,32,0.00,,,-99.99,FreeWX-Wi 1.01,2013-05-17 00:39:00,
2013-05-16 17:44:00,70.2,38.8,-100.00,NE,54,1.0,0.0,32,0.00,,,-99.99,FreeWX-Wi 1.01,2013-05-17 00:44:00,
2013-05-16 17:49:00,70.2,38.8,-100.00,NE,54,1.0,0.0,32,0.00,,,-99.99,FreeWX-Wi 1.01,2013-05-17 00:49:00,
2013-05-16 17:54:00,72.5,41.0,-100.00,NE,54,1.0,0.0,32,0.00,,,-99.99,FreeWX-Wi 1.01,2013-05-17 00:54:00,
2013-05-16 17:59:00,78.1,45.0,-100.00,NE,54,1.0,0.0,31,0.00,,,-99.99,FreeWX-Wi 1.01,2013-05-17 00:59:00,
2013-05-16 18:04:00,80.6,46.2,-100.00,NE,54,1.0,0.0,30,0.00,,,-99.99,FreeWX-Wi 1.01,2013-05-17 01:04:00,
2013-05-16 18:09:00,81.3,46.9,-100.00,NE,54,1.0,0.0,30,0.00,,,-99.99,FreeWX-Wi 1.01,2013-05-17 01:09:00,
2013-05-16 18:14:00,79.0,45.0,-100.00,NE,54,1.0,0.0,30,0.00,,,-99.99,FreeWX-Wi 1.01,2013-05-17 01:14:00,
2013-05-16 18:19:00,73.8,41.2,-100.00,NE,54,1.0,0.0,31,0.00,,,-99.99,FreeWX-Wi 1.01,2013-05-17 01:19:00,
2013-05-16 18:24:00,70.9,39.6,-100.00,NE,54,1.0,0.0,32,0.00,,,-99.99,FreeWX-Wi 1.01,2013-05-17 01:24:00,
2013-05-16 18:29:00,69.6,39.2,-100.00,NE,54,1.0,0.0,33,0.00,,,-99.99,FreeWX-Wi 1.01,2013-05-17 01:29:00,
2013-05-16 18:34:00,68.4,38.1,-100.00,NE,54,1.0,0.0,33,0.00,,,-99.99,FreeWX-Wi 1.01,2013-05-17 01:34:00,
2013-05-16 18:39:00,67.6,37.6,-100.00,NE,54,1.0,0.0,33,0.00,,,-99.99,FreeWX-Wi 1.01,2013-05-17 01:39:00,
2013-05-16 18:44:00,67.5,37.4,-100.00,NE,54,1.0,0.0,33,0.00,,,-99.99,FreeWX-Wi 1.01,2013-05-17 01:44:00,
2013-05-16 18:49:00,66.9,36.9,-100.00,NE,54,1.0,0.0,33,0.00,,,-99.99,FreeWX-Wi 1.01,2013-05-17 01:49:00,
2013-05-16 18:54:00,66.6,36.5,-100.00,NE,54,1.0,0.0,33,0.00,,,-99.99,FreeWX-Wi 1.01,2013-05-17 01:54:00,
2013-05-16 18:59:00,66.6,36.5,-100.00,NE,54,1.0,0.0,33,0.00,,,-99.99,FreeWX-Wi 1.01,2013-05-17 01:59:00,
2013-05-16 19:05:00,66.4,36.3,-100.00,NE,54,1.0,0.0,33,0.00,,,-99.99,FreeWX-Wi 1.01,2013-05-17 02:05:00,
2013-05-16 19:10:00,65.8,36.0,-100.00,NE,54,1.0,0.0,33,0.00,,,-99.99,FreeWX-Wi 1.01,2013-05-17 02:10:00,
2013-05-16 19:15:00,65.5,35.6,-100.00,NE,54,1.0,0.0,33,0.00,,,-99.99,FreeWX-Wi 1.01,2013-05-17 02:15:00,
2013-05-16 19:20:00,65.5,35.6,-100.00,NE,54,1.0,0.0,33,0.00,,,-99.99,FreeWX-Wi 1.01,2013-05-17 02:20:00,
2013-05-16 19:25:00,65.5,35.6,-100.00,NE,54,1.0,0.0,33,0.00,,,-99.99,FreeWX-Wi 1.01,2013-05-17 02:25:00,
2013-05-16 19:30:00,65.5,35.6,-100.00,NE,54,1.0,0.0,33,0.00,,,-99.99,FreeWX-Wi 1.01,2013-05-17 02:30:00,
2013-05-16 19:35:00,65.3,35.4,-100.00,NE,54,1.0,0.0,33,0.00,,,-99.99,FreeWX-Wi 1.01,2013-05-17 02:35:00,
2013-05-16 19:40:00,65.1,35.2,-100.00,NE,54,1.0,0.0,33,0.00,,,-99.99,FreeWX-Wi 1.01,2013-05-17 02:40:00,
2013-05-16 19:45:00,64.9,35.1,-100.00,NE,54,1.0,0.0,33,0.00,,,-99.99,FreeWX-Wi 1.01,2013-05-17 02:45:00,
2013-05-16 19:50:00,64.6,34.9,-100.00,NE,54,1.0,0.0,33,0.00,,,-99.99,FreeWX-Wi 1.01,2013-05-17 02:50:00,
2013-05-16 19:55:00,64.6,34.9,-100.00,NE,54,1.0,0.0,33,0.00,,,-99.99,FreeWX-Wi 1.01,2013-05-17 02:55:00,
2013-05-16 20:00:00,64.2,35.2,-100.00,NE,55,1.0,0.0,34,0.00,,,-99.99,FreeWX-Wi 1.01,2013-05-17 03:00:00,
2013-05-16 20:05:00,63.7,34.7,-100.00,NE,53,1.0,0.0,34,0.00,,,-99.99,FreeWX-Wi 1.01,2013-05-17 03:05:00,
2013-05-16 20:10:00,63.1,34.3,-100.00,NE,51,1.0,0.0,34,0.00,,,-99.99,FreeWX-Wi 1.01,2013-05-17 03:10:00,
2013-05-16 20:15:00,62.4,33.6,-100.00,NE,49,1.0,0.0,34,0.00,,,-99.99,FreeWX-Wi 1.01,2013-05-17 03:15:00,
2013-05-16 20:20:00,62.2,33.4,-100.00,NE,48,1.0,0.0,34,0.00,,,-99.99,FreeWX-Wi 1.01,2013-05-17 03:20:00,
2013-05-16 20:26:00,61.9,33.3,-100.00,NE,48,1.0,0.0,34,0.00,,,-99.99,FreeWX-Wi 1.01,2013-05-17 03:26:00,
2013-05-16 20:31:00,62.1,33.4,-100.00,NE,48,1.0,0.0,34,0.00,,,-99.99,FreeWX-Wi 1.01,2013-05-17 03:31:00,
2013-05-16 20:36:00,62.1,33.4,-100.00,NE,48,1.0,0.0,34,0.00,,,-99.99,FreeWX-Wi 1.01,2013-05-17 03:36:00,
2013-05-16 20:41:00,61.9,33.3,-100.00,NE,48,1.0,0.0,34,0.00,,,-99.99,FreeWX-Wi 1.01,2013-05-17 03:41:00,
2013-05-16 20:46:00,61.9,33.3,-100.00,NE,48,1.0,0.0,34,0.00,,,-99.99,FreeWX-Wi 1.01,2013-05-17 03:46:00,
2013-05-16 20:51:00,61.9,33.3,-100.00,NE,48,1.0,0.0,34,0.00,,,-99.99,FreeWX-Wi 1.01,2013-05-17 03:51:00,
2013-05-16 21:01:00,61.5,32.9,-100.00,NE,48,1.0,0.0,34,0.00,,,-99.99,FreeWX-Wi 1.01,2013-05-17 04:01:00,
2013-05-16 21:11:00,61.3,32.7,-100.00,NE,48,1.0,0.0,34,0.00,,,-99.99,FreeWX-Wi 1.01,2013-05-17 04:11:00,
2013-05-16 21:16:00,61.3,32.7,-100.00,NE,48,1.0,0.0,34,0.00,,,-99.99,FreeWX-Wi 1.01,2013-05-17 04:16:00,
2013-05-16 21:21:00,61.2,32.5,-100.00,NE,45,1.0,0.0,34,0.00,,,-99.99,FreeWX-Wi 1.01,2013-05-17 04:21:00,
2013-05-16 21:31:00,61.0,32.4,-100.00,NNE,23,1.0,0.0,34,0.00,,,-99.99,FreeWX-Wi 1.01,2013-05-17 04:31:00,
2013-05-16 21:36:00,60.8,32.2,-100.00,NNE,23,1.0,0.0,34,0.00,,,-99.99,FreeWX-Wi 1.01,2013-05-17 04:36:00,
2013-05-16 21:41:00,60.8,32.2,-100.00,NNE,20,1.0,0.0,34,0.00,,,-99.99,FreeWX-Wi 1.01,2013-05-17 04:41:00,
2013-05-16 21:51:00,60.4,32.7,-100.00,North,-999,0.0,0.0,35,0.00,,,-99.99,FreeWX-Wi 1.01,2013-05-17 04:51:00,
2013-05-16 21:56:00,60.1,32.4,-100.00,North,-999,0.0,0.0,35,0.00,,,-99.99,FreeWX-Wi 1.01,2013-05-17 04:56:00,
2013-05-16 22:01:00,59.9,32.2,-100.00,North,-999,0.0,0.0,35,0.00,,,-99.99,FreeWX-Wi 1.01,2013-05-17 05:01:00,
2013-05-16 22:06:00,59.4,31.6,-100.00,North,-999,0.0,0.0,35,0.00,,,-99.99,FreeWX-Wi 1.01,2013-05-17 05:06:00,
2013-05-16 22:11:00,59.2,31.5,-100.00,North,-999,0.0,2.7,35,0.00,,,-99.99,FreeWX-Wi 1.01,2013-05-17 05:11:00,
2013-05-16 22:16:00,59.0,31.5,-100.00,North,-999,0.0,0.0,35,0.00,,,-99.99,FreeWX-Wi 1.01,2013-05-17 05:16:00,
2013-05-16 22:21:00,58.6,31.1,-100.00,North,-999,0.0,0.0,35,0.00,,,-99.99,FreeWX-Wi 1.01,2013-05-17 05:21:00,
2013-05-16 22:26:00,58.5,30.9,-100.00,North,-999,0.0,4.9,35,0.00,,,-99.99,FreeWX-Wi 1.01,2013-05-17 05:26:00,
2013-05-16 22:31:00,58.6,31.8,-100.00,North,-999,0.0,0.0,36,0.00,,,-99.99,FreeWX-Wi 1.01,2013-05-17 05:31:00,
2013-05-16 22:36:00,58.8,32.0,-100.00,North,-999,0.0,0.0,36,0.00,,,-99.99,FreeWX-Wi 1.01,2013-05-17 05:36:00,
2013-05-16 22:41:00,59.0,31.5,-100.00,North,-999,0.0,2.2,35,0.00,,,-99.99,FreeWX-Wi 1.01,2013-05-17 05:41:00,
2013-05-16 22:46:00,58.8,32.0,-100.00,North,-999,0.0,0.0,36,0.00,,,-99.99,FreeWX-Wi 1.01,2013-05-17 05:46:00,
2013-05-16 22:51:00,59.0,31.5,-100.00,North,-999,0.0,3.1,35,0.00,,,-99.99,FreeWX-Wi 1.01,2013-05-17 05:51:00,
2013-05-16 22:56:00,58.8,32.0,-100.00,North,-999,0.0,0.0,36,0.00,,,-99.99,FreeWX-Wi 1.01,2013-05-17 05:56:00,
2013-05-16 23:01:00,58.8,32.0,-100.00,North,-999,0.0,0.0,36,0.00,,,-99.99,FreeWX-Wi 1.01,2013-05-17 06:01:00,
2013-05-16 23:06:00,58.6,31.8,-100.00,North,-999,0.0,4.0,36,0.00,,,-99.99,FreeWX-Wi 1.01,2013-05-17 06:06:00,
2013-05-16 23:16:00,58.5,31.6,-100.00,North,-999,0.0,2.7,36,0.00,,,-99.99,FreeWX-Wi 1.01,2013-05-17 06:16:00,
2013-05-16 23:22:00,58.5,31.6,-100.00,North,-999,0.0,0.0,36,0.00,,,-99.99,FreeWX-Wi 1.01,2013-05-17 06:22:00,
2013-05-16 23:27:00,58.3,31.5,-100.00,North,-999,0.0,4.0,36,0.00,,,-99.99,FreeWX-Wi 1.01,2013-05-17 06:27:00,
2013-05-16 23:32:00,58.1,31.3,-100.00,North,-999,0.0,4.9,36,0.00,,,-99.99,FreeWX-Wi 1.01,2013-05-17 06:32:00,
2013-05-16 23:37:00,57.9,31.1,-100.00,North,-999,0.0,0.0,36,0.00,,,-99.99,FreeWX-Wi 1.01,2013-05-17 06:37:00,
2013-05-16 23:42:00,57.9,31.1,-100.00,North,-999,0.0,3.6,36,0.00,,,-99.99,FreeWX-Wi 1.01,2013-05-17 06:42:00,
2013-05-16 23:47:00,57.9,31.1,-100.00,North,-999,0.0,2.2,36,0.00,,,-99.99,FreeWX-Wi 1.01,2013-05-17 06:47:00,
2013-05-16 23:52:00,57.7,30.9,-100.00,North,-999,0.0,0.0,36,0.00,,,-99.99,FreeWX-Wi 1.01,2013-05-17 06:52:00,
2013-05-16 23:57:00,57.6,30.7,-100.00,North,-999,0.0,0.0,36,0.00,,,-99.99,FreeWX-Wi 1.01,2013-05-17 06:57:00,